Weather History for Pensacola, FL

Change the Weather History Date:

Wednesday, November 7, 2012

  Actual Average Record
Temperature  
Mean Temperature 57 °F 63 °F  
Max Temperature 67 °F 73 °F 83 °F (1975)
Min Temperature 46 °F 54 °F 30 °F (1959)
Degree Days  
Heating Degree Days 8 4  
Month to date heating degree days 16 24  
Since 1 July heating degree days 45 62  
Cooling Degree Days 0 2  
Month to date cooling degree days 22 17  
Year to date cooling degree days 3026 2567  
Growing Degree Days 6 (Base 50)    
Moisture  
Dew Point 41 °F    
Average Humidity 59    
Maximum Humidity 86    
Minimum Humidity 32    
Precipitation  
Precipitation 0.00 in 0.16 in 4.09 in (1885)
Month to date precipitation 0.31 1.15  
Year to date precipitation 63.62 57.14  
Snow  
Snow 0.00 in 0.00 in 0.00 in (2002)
Month to date snowfall 0.0 0.0  
Since 1 July snowfall 0.0 0.0  
Snow Depth 0.00 in    
Sea Level Pressure  
Sea Level Pressure 30.04 in    
Wind  
Wind Speed 9 mph (NW)    
Max Wind Speed 17 mph    
Max Gust Speed 23 mph    
Visibility 10 miles    
Events      
T = Trace of Precipitation, MM = Missing Value Source: NWS Daily Summary

Daily Weather History Graph

Daily Weather History Graph

Search for Another Location

Airport:

Trip Planner

Search our weather history database for the weather conditions in past years. The results will help you decide how hot, cold, wet, or windy it might be!

Date:

Astronomy

Nov. 07, 2012 Rise Set
Actual Time 6:08 AM CST 4:56 PM CST
Civil Twilight 5:43 AM CST 5:21 PM CST
Nautical Twilight 5:14 AM CST 5:49 PM CST
Astronomical Twilight 4:46 AM CST 6:18 PM CST
Moon No Moon Rise 12:39 PM CST (11/7)
Length of Visible Light 11h 37m
Length of Day
10h 47m
Last Quarter, 43% of the Moon is Illuminated
Nov 7
Last Quarter
Nov 13
New
Nov 20
First Quarter
Nov 28
Full
Dec 6
Last Quarter

Hourly Weather History & Observations

Time (CST) Temp. Windchill Dew Point Humidity Pressure Visibility Wind Dir Wind Speed Gust Speed Precip Events Conditions
12:53 AM 51.1 °F - 45.0 °F 80% 30.02 in 10.0 mi NW 6.9 mph - N/A   Mostly Cloudy
1:53 AM 50.0 °F - 45.0 °F 83% 30.03 in 10.0 mi NW 6.9 mph - N/A   Mostly Cloudy
2:53 AM 48.9 °F - 44.1 °F 83% 30.02 in 10.0 mi NW 6.9 mph - N/A   Clear
3:53 AM 48.0 °F - 44.1 °F 86% 30.02 in 10.0 mi WNW 5.8 mph - N/A   Clear
4:53 AM 46.9 °F - 43.0 °F 86% 30.04 in 10.0 mi WNW 5.8 mph - N/A   Clear
5:53 AM 46.0 °F 43.1 °F 43.0 °F 89% 30.04 in 10.0 mi NW 5.8 mph - N/A   Clear
6:53 AM 48.0 °F - 44.1 °F 86% 30.05 in 10.0 mi WNW 4.6 mph - N/A   Clear
7:53 AM 54.0 °F - 45.0 °F 72% 30.06 in 10.0 mi NW 9.2 mph - N/A   Clear
8:53 AM 59.0 °F - 45.0 °F 60% 30.07 in 10.0 mi NW 10.4 mph - N/A   Partly Cloudy
9:53 AM 61.0 °F - 45.0 °F 56% 30.06 in 10.0 mi WNW 10.4 mph - N/A   Scattered Clouds
10:53 AM 62.1 °F - 46.0 °F 56% 30.03 in 10.0 mi NW 9.2 mph - N/A   Mostly Cloudy
11:53 AM 64.9 °F - 43.0 °F 45% 29.99 in 10.0 mi NNW 11.5 mph - N/A   Mostly Cloudy
12:53 PM 66.9 °F - 41.0 °F 39% 29.97 in 10.0 mi NW 12.7 mph - N/A   Overcast
1:53 PM 66.0 °F - 39.0 °F 37% 29.95 in 10.0 mi WNW 13.8 mph 21.9 mph N/A   Clear
2:53 PM 66.0 °F - 36.0 °F 33% 29.96 in 10.0 mi NW 16.1 mph 23.0 mph N/A   Clear
3:53 PM 64.9 °F - 36.0 °F 34% 29.97 in 10.0 mi NNW 13.8 mph 21.9 mph N/A   Clear
4:53 PM 60.8 °F - 37.4 °F 42% 29.98 in 10.0 mi NW 6.9 mph - N/A   Clear
5:53 PM 57.0 °F - 39.9 °F 53% 30.02 in 10.0 mi NW 5.8 mph - N/A   Scattered Clouds
6:53 PM 55.9 °F - 39.0 °F 53% 30.04 in 10.0 mi NW 4.6 mph - N/A   Scattered Clouds
7:53 PM 57.9 °F - 39.0 °F 49% 30.07 in 10.0 mi NNW 9.2 mph - N/A   Mostly Cloudy
8:53 PM 55.9 °F - 39.0 °F 53% 30.10 in 10.0 mi North 12.7 mph - N/A   Mostly Cloudy
9:53 PM 54.0 °F - 37.0 °F 53% 30.12 in 10.0 mi North 10.4 mph - N/A   Scattered Clouds
10:53 PM 52.0 °F - 36.0 °F 54% 30.12 in 10.0 mi North 8.1 mph - N/A   Clear
11:53 PM 50.0 °F - 37.0 °F 61% 30.13 in 10.0 mi North 6.9 mph - N/A   Clear